Temp
-26 -25 -25 -25 -24 -24 -24 -24 -24 -23 -23 -23 -23 -22 -22 -22 -22 -22 -22 -22 -22 -22 -22 -22 -22 -21 -21 -21 -20 -20 -20 -20 -20 -20 -20 -20 -20 -20 -21 -21 -21 -22 -22 -22 -22 -22 -21 -21 -21 -22 -24 -24 -23 -23
-26 -26 -26 -25 -25 -25 -24 -24 -24 -24 -24 -23 -23 -23 -23 -23 -23 -22 -22 -21 -22 -23 -23 -22 -22 -21 -21 -20 -21 -21 -21 -21 -21 -21 -21 -21 -21 -21 -21 -21 -22 -22 -23 -23 -24 -22 -22 -22 -23 -23 -24 -24 -24 -25
-27 -26 -26 -26 -25 -25 -25 -25 -25 -25 -25 -24 -24 -24 -23 -23 -23 -23 -22 -22 -22 -23 -23 -23 -22 -21 -21 -21 -21 -22 -22 -22 -22 -21 -21 -21 -21 -21 -22 -22 -22 -23 -24 -24 -22 -23 -23 -23 -24 -24 -25 -25 -25 -25
-27 -27 -26 -26 -26 -26 -25 -25 -25 -25 -25 -25 -24 -24 -24 -24 -23 -23 -23 -22 -23 -24 -24 -23 -22 -22 -22 -22 -22 -22 -22 -22 -22 -22 -22 -22 -22 -22 -22 -22 -22 -25 -25 -24 -22 -24 -24 -24 -25 -25 -25 -25 -25 -25
-28 -27 -27 -26 -26 -26 -26 -26 -25 -26 -26 -25 -25 -24 -24 -24 -24 -24 -24 -24 -23 -24 -24 -23 -23 -23 -22 -22 -23 -23 -23 -23 -22 -22 -22 -22 -23 -23 -22 -22 -24 -26 -25 -24 -24 -25 -24 -24 -25 -25 -25 -25 -25 -25
-28 -28 -27 -27 -27 -27 -26 -26 -26 -26 -26 -26 -25 -25 -25 -24 -24 -25 -25 -24 -23 -24 -24 -24 -24 -23 -23 -23 -23 -23 -23 -23 -23 -23 -23 -23 -25 -24 -22 -23 -25 -25 -25 -25 -25 -25 -25 -25 -25 -25 -25 -25 -25 -25
-28 -28 -27 -27 -27 -27 -27 -27 -27 -26 -26 -26 -26 -26 -25 -24 -25 -25 -25 -24 -24 -23 -24 -25 -24 -24 -24 -23 -23 -23 -23 -24 -24 -23 -23 -25 -25 -25 -24 -25 -26 -25 -25 -25 -25 -25 -24 -25 -25 -25 -25 -25 -25 -25
-28 -28 -28 -28 -27 -27 -27 -27 -27 -27 -27 -27 -26 -26 -25 -25 -26 -26 -25 -24 -23 -23 -23 -25 -25 -25 -25 -25 -25 -25 -24 -24 -24 -25 -25 -25 -25 -25 -25 -26 -24 -25 -25 -25 -25 -25 -25 -25 -25 -25 -25 -25 -25 -25
-28 -28 -28 -28 -27 -27 -27 -27 -27 -27 -27 -27 -26 -26 -26 -26 -27 -27 -25 -24 -24 -23 -23 -24 -25 -26 -26 -26 -26 -26 -25 -25 -25 -25 -25 -25 -25 -25 -25 -25 -25 -25 -25 -25 -25 -25 -25 -25 -25 -25 -25 -25 -25 -25
-29 -28 -28 -27 -27 -27 -27 -27 -27 -27 -27 -27 -26 -26 -26 -27 -28 -26 -25 -24 -24 -24 -23 -24 -25 -26 -26 -26 -26 -25 -25 -25 -25 -25 -25 -25 -26 -26 -25 -25 -25 -25 -25 -25 -25 -25 -25 -25 -25 -25 -25 -24 -24 -24
-29 -29 -28 -28 -27 -27 -27 -27 -27 -27 -27 -27 -26 -26 -27 -27 -27 -27 -26 -25 -24 -24 -23 -25 -25 -26 -26 -26 -26 -26 -25 -25 -25 -26 -26 -25 -26 -26 -25 -25 -25 -25 -25 -25 -25 -25 -25 -25 -25 -25 -25 -24 -24 -24
-30 -30 -29 -29 -28 -28 -28 -28 -28 -27 -27 -27 -27 -27 -28 -27 -27 -26 -26 -25 -24 -24 -24 -25 -26 -26 -26 -26 -27 -26 -26 -26 -26 -26 -25 -25 -26 -26 -26 -26 -25 -25 -25 -25 -25 -25 -25 -25 -25 -24 -24 -24 -24 -23
-30 -30 -30 -29 -29 -29 -29 -29 -28 -28 -28 -28 -28 -28 -28 -27 -27 -26 -25 -25 -25 -25 -26 -26 -26 -26 -26 -26 -26 -26 -26 -26 -26 -26 -25 -25 -26 -26 -26 -25 -25 -25 -25 -25 -25 -25 -25 -25 -25 -24 -24 -24 -24 -24
-31 -31 -30 -30 -29 -29 -29 -29 -29 -28 -28 -28 -28 -27 -27 -26 -26 -26 -26 -26 -26 -26 -26 -26 -26 -26 -27 -26 -26 -26 -26 -26 -25 -25 -25 -26 -26 -25 -25 -25 -25 -25 -25 -25 -26 -25 -25 -26 -26 -25 -25 -25 -24 -24
-31 -31 -31 -30 -30 -30 -29 -29 -29 -29 -28 -28 -28 -27 -27 -27 -27 -27 -27 -26 -27 -27 -27 -27 -27 -27 -27 -27 -26 -26 -26 -25 -25 -26 -26 -26 -25 -25 -25 -25 -26 -26 -26 -26 -26 -26 -26 -26 -26 -26 -25 -25 -25 -25
-32 -32 -31 -31 -30 -30 -30 -30 -29 -29 -29 -28 -28 -27 -27 -27 -27 -27 -27 -27 -27 -27 -27 -27 -27 -27 -27 -27 -26 -26 -26 -26 -26 -26 -26 -26 -25 -26 -26 -26 -26 -26 -26 -26 -26 -26 -27 -26 -26 -26 -26 -26 -26 -26
-33 -32 -32 -31 -31 -31 -30 -30 -30 -29 -29 -28 -28 -28 -28 -28 -28 -28 -28 -28 -27 -28 -28 -27 -27 -27 -27 -26 -26 -26 -26 -26 -26 -26 -26 -26 -26 -26 -26 -26 -26 -26 -27 -27 -27 -27 -27 -27 -27 -27 -27 -27 -27 -26
-33 -33 -32 -32 -31 -31 -31 -31 -30 -30 -28 -27 -28 -29 -28 -28 -28 -28 -28 -28 -28 -28 -28 -27 -27 -27 -26 -26 -26 -26 -26 -26 -26 -26 -26 -26 -26 -26 -26 -27 -27 -27 -27 -28 -28 -28 -27 -27 -27 -27 -27 -27 -26 -26
-35 -34 -33 -33 -32 -32 -31 -31 -30 -29 -28 -28 -29 -29 -29 -29 -29 -28 -28 -28 -28 -28 -28 -27 -27 -27 -26 -27 -26 -26 -26 -26 -26 -26 -27 -27 -26 -26 -27 -27 -27 -28 -28 -28 -28 -28 -28 -28 -27 -27 -27 -27 -27 -27
-36 -35 -34 -33 -32 -32 -31 -31 -30 -29 -28 -29 -30 -29 -29 -29 -29 -28 -28 -28 -28 -28 -28 -27 -27 -27 -26 -26 -26 -26 -26 -26 -26 -26 -27 -27 -26 -27 -27 -27 -27 -28 -29 -29 -28 -28 -28 -28 -28 -27 -27 -27 -27 -28
-37 -36 -35 -34 -33 -32 -31 -31 -30 -29 -30 -30 -30 -30 -29 -29 -29 -28 -28 -28 -28 -27 -27 -28 -27 -27 -27 -26 -27 -27 -27 -27 -27 -27 -27 -27 -27 -27 -27 -27 -27 -28 -28 -28 -29 -28 -28 -28 -28 -28 -28 -28 -28 -28
-37 -36 -36 -34 -33 -32 -31 -30 -30 -30 -29 -30 -30 -30 -30 -29 -29 -29 -29 -28 -28 -28 -28 -27 -27 -27 -27 -27 -27 -27 -27 -27 -27 -27 -27 -27 -27 -27 -27 -27 -28 -28 -28 -29 -29 -29 -29 -28 -28 -28 -28 -28 -28 -28
-38 -37 -36 -35 -34 -32 -31 -31 -30 -30 -30 -30 -30 -30 -30 -29 -29 -29 -29 -28 -28 -28 -28 -27 -27 -27 -27 -27 -27 -27 -27 -27 -27 -27 -27 -27 -27 -27 -27 -28 -28 -29 -29 -29 -29 -29 -29 -29 -28 -29 -28 -28 -28 -29
-37 -37 -36 -35 -33 -32 -32 -31 -31 -31 -31 -30 -30 -30 -30 -29 -29 -29 -28 -28 -28 -28 -28 -28 -27 -27 -27 -27 -27 -27 -27 -27 -27 -27 -27 -27 -27 -27 -28 -28 -28 -28 -29 -29 -29 -29 -29 -29 -29 -29 -29 -29 -29 -29
-37 -37 -36 -34 -33 -33 -32 -32 -32 -31 -31 -31 -31 -31 -30 -29 -29 -29 -28 -28 -28 -28 -28 -28 -28 -27 -27 -27 -27 -27 -27 -27 -27 -27 -27 -27 -27 -28 -28 -28 -28 -28 -29 -29 -29 -29 -29 -29 -29 -29 -29 -29 -29 -29
-36 -35 -34 -34 -33 -33 -32 -31 -31 -32 -32 -32 -31 -30 -30 -29 -29 -29 -28 -28 -29 -28 -28 -28 -28 -27 -27 -27 -27 -27 -27 -27 -27 -27 -27 -27 -28 -28 -28 -28 -28 -29 -29 -29 -29 -29 -29 -29 -29 -29 -29 -29 -29 -29
-35 -34 -34 -33 -33 -32 -32 -32 -32 -32 -32 -31 -31 -31 -30 -29 -29 -28 -28 -29 -28 -28 -28 -28 -28 -28 -28 -27 -28 -28 -27 -27 -27 -28 -28 -28 -28 -28 -28 -28 -28 -29 -29 -29 -29 -29 -29 -29 -29 -29 -29 -29 -29 -29
-35 -34 -33 -33 -33 -32 -32 -32 -32 -31 -31 -31 -31 -31 -30 -29 -29 -29 -29 -29 -28 -28 -29 -28 -28 -28 -28 -28 -28 -28 -28 -28 -28 -28 -28 -28 -28 -28 -28 -29 -29 -29 -29 -29 -29 -29 -29 -29 -29 -29 -29 -29 -29 -29
-34 -34 -33 -33 -33 -32 -32 -32 -32 -32 -31 -31 -31 -30 -30 -30 -30 -29 -29 -29 -29 -29 -29 -29 -29 -28 -28 -28 -28 -28 -28 -28 -28 -28 -29 -29 -29 -29 -29 -29 -29 -29 -29 -29 -29 -29 -29 -29 -29 -29 -29 -29 -29 -29
-34 -33 -33 -33 -33 -32 -32 -32 -32 -32 -32 -31 -31 -31 -30 -30 -30 -30 -29 -29 -29 -29 -29 -29 -29 -29 -29 -29 -28 -28 -28 -28 -28 -28 -29 -29 -29 -29 -29 -29 -29 -29 -29 -29 -29 -29 -29 -29 -29 -29 -29 -29 -29 -30
-34 -34 -33 -33 -32 -32 -31 -31 -31 -31 -31 -31 -31 -31 -30 -30 -30 -30 -30 -29 -29 -29 -29 -29 -29 -29 -29 -29 -29 -29 -28 -28 -29 -29 -29 -29 -29 -29 -29 -29 -29 -29 -29 -29 -29 -29 -29 -29 -29 -29 -29 -30 -30 -30
-34 -33 -33 -32 -32 -31 -32 -32 -31 -31 -31 -31 -31 -30 -30 -30 -30 -30 -30 -30 -29 -29 -29 -29 -29 -29 -29 -29 -29 -29 -29 -29 -29 -29 -29 -29 -29 -29 -29 -29 -29 -29 -29 -29 -29 -29 -29 -29 -29 -29 -30 -30 -30 -30
-33 -33 -33 -32 -32 -32 -32 -32 -32 -31 -31 -31 -31 -30 -30 -30 -30 -30 -30 -30 -30 -30 -29 -29 -29 -29 -29 -29 -29 -29 -29 -29 -29 -29 -29 -29 -29 -29 -29 -29 -29 -29 -29 -29 -29 -29 -29 -29 -30 -30 -30 -30 -30 -30
Height
5422 5430 5439 5448 5456 5463 5472 5479 5487 5494 5498 5504 5511 5516 5521 5527 5532 5537 5542 5547 5552 5556 5560 5563 5566 5569 5572 5575 5576 5581 5586 5588 5590 5590 5591 5592 5591 5592 5592 5592 5591 5590 5587 5585 5582 5578 5579 5582 5580 5569 5559 5555 5558 5554
5414 5423 5432 5439 5448 5456 5464 5472 5479 5486 5491 5497 5502 5508 5514 5519 5524 5530 5535 5539 5544 5550 5554 5555 5557 5560 5562 5567 5570 5572 5576 5577 5579 5580 5582 5583 5583 5583 5584 5584 5582 5581 5576 5575 5574 5567 5570 5570 5560 5556 5551 5543 5544 5536
5405 5414 5422 5431 5439 5448 5456 5465 5471 5477 5482 5488 5495 5501 5507 5512 5518 5523 5527 5533 5537 5541 5545 5548 5550 5554 5557 5558 5561 5566 5565 5567 5570 5570 5572 5572 5573 5575 5575 5575 5572 5568 5567 5565 5560 5562 5562 5557 5553 5546 5541 5534 5531 5525
5397 5405 5413 5422 5431 5439 5448 5455 5462 5469 5475 5481 5488 5494 5501 5506 5511 5516 5520 5525 5530 5534 5536 5541 5544 5547 5549 5552 5554 5555 5557 5560 5562 5563 5563 5563 5564 5566 5567 5565 5563 5562 5557 5552 5552 5553 5549 5548 5540 5535 5532 5524 5520 5516
5390 5398 5407 5415 5423 5432 5440 5447 5455 5463 5469 5476 5481 5487 5493 5499 5506 5510 5514 5518 5522 5527 5529 5533 5536 5540 5543 5546 5548 5549 5552 5553 5554 5556 5556 5557 5557 5557 5557 5556 5557 5551 5547 5545 5548 5543 5537 5539 5532 5526 5521 5517 5510 5503
5386 5393 5401 5409 5417 5425 5434 5441 5449 5456 5463 5470 5475 5481 5487 5493 5499 5503 5507 5511 5515 5520 5524 5528 5531 5535 5538 5540 5541 5543 5545 5547 5548 5548 5549 5550 5551 5549 5548 5550 5547 5543 5542 5540 5540 5536 5531 5527 5524 5518 5513 5507 5500 5492
5380 5387 5395 5404 5412 5419 5428 5435 5443 5450 5457 5464 5470 5476 5481 5487 5491 5496 5501 5506 5510 5514 5520 5522 5525 5528 5531 5533 5535 5537 5537 5539 5541 5541 5542 5543 5544 5541 5542 5545 5540 5538 5537 5534 5531 5529 5526 5519 5515 5508 5501 5495 5486 5477
5375 5382 5390 5399 5406 5414 5423 5430 5437 5444 5452 5459 5465 5470 5475 5480 5486 5490 5495 5500 5505 5510 5515 5519 5520 5523 5525 5527 5529 5531 5532 5533 5535 5535 5537 5537 5536 5536 5536 5534 5534 5534 5533 5530 5526 5521 5517 5512 5504 5496 5487 5479 5470 5460
5369 5377 5386 5394 5402 5410 5418 5425 5432 5439 5447 5454 5460 5465 5469 5476 5482 5485 5491 5497 5501 5506 5509 5514 5517 5519 5521 5523 5525 5526 5527 5527 5528 5530 5530 5529 5532 5531 5529 5530 5529 5528 5526 5523 5519 5514 5507 5501 5495 5486 5477 5467 5457 5449
5364 5373 5381 5389 5397 5405 5412 5420 5427 5434 5441 5448 5454 5460 5466 5473 5476 5482 5487 5492 5496 5499 5502 5507 5512 5517 5519 5520 5521 5523 5522 5522 5522 5524 5523 5525 5527 5525 5524 5525 5524 5521 5519 5516 5512 5506 5499 5493 5486 5477 5465 5455 5445 5439
5357 5366 5374 5383 5392 5400 5407 5415 5422 5429 5436 5443 5449 5455 5462 5466 5472 5478 5482 5486 5491 5494 5496 5503 5505 5510 5511 5514 5515 5516 5516 5516 5516 5518 5518 5520 5523 5520 5519 5519 5518 5516 5513 5508 5502 5496 5489 5482 5473 5465 5456 5446 5439 5433
5351 5359 5368 5377 5386 5394 5402 5409 5417 5424 5432 5439 5446 5451 5457 5462 5468 5474 5478 5481 5484 5489 5493 5501 5501 5503 5505 5507 5509 5509 5509 5509 5511 5513 5513 5516 5517 5516 5515 5514 5512 5509 5504 5499 5494 5488 5481 5474 5466 5456 5447 5441 5434 5427
5343 5352 5361 5371 5379 5388 5396 5404 5412 5419 5426 5433 5440 5445 5451 5457 5462 5467 5472 5477 5482 5487 5492 5493 5495 5497 5499 5502 5503 5503 5503 5504 5506 5507 5509 5513 5511 5510 5509 5506 5504 5500 5496 5492 5487 5482 5475 5467 5458 5450 5444 5438 5432 5425
5335 5346 5355 5363 5373 5382 5390 5398 5406 5413 5421 5428 5434 5440 5445 5451 5456 5462 5470 5474 5479 5481 5484 5486 5489 5492 5494 5496 5496 5497 5499 5500 5500 5502 5505 5504 5504 5503 5501 5499 5496 5493 5489 5486 5481 5476 5470 5463 5457 5450 5444 5437 5432 5427
5326 5336 5346 5356 5365 5375 5383 5391 5398 5406 5413 5421 5427 5433 5441 5447 5452 5458 5464 5469 5472 5475 5479 5482 5485 5487 5489 5490 5491 5493 5494 5494 5496 5497 5496 5496 5495 5494 5492 5490 5488 5486 5483 5480 5476 5471 5466 5461 5455 5450 5443 5437 5433 5429
5316 5326 5338 5348 5356 5366 5374 5383 5391 5398 5406 5414 5421 5428 5436 5442 5448 5454 5458 5462 5466 5469 5473 5477 5479 5482 5483 5485 5488 5489 5490 5491 5491 5490 5489 5488 5488 5487 5485 5484 5482 5479 5475 5472 5469 5465 5462 5457 5452 5448 5442 5437 5433 5430
5305 5318 5328 5338 5347 5356 5366 5375 5383 5390 5398 5406 5415 5422 5429 5436 5442 5447 5452 5455 5459 5464 5469 5472 5474 5477 5479 5481 5483 5484 5486 5485 5485 5484 5483 5483 5482 5481 5479 5476 5473 5470 5467 5464 5462 5460 5458 5454 5450 5447 5443 5438 5435 5431
5298 5307 5319 5329 5337 5348 5357 5366 5374 5382 5391 5400 5408 5418 5424 5430 5435 5440 5446 5449 5454 5458 5463 5467 5469 5471 5474 5477 5479 5479 5479 5479 5479 5479 5478 5477 5475 5473 5470 5467 5463 5461 5458 5457 5457 5456 5454 5451 5448 5445 5442 5438 5435 5432
5289 5298 5310 5321 5331 5341 5350 5359 5367 5375 5385 5393 5403 5411 5418 5424 5429 5434 5439 5443 5447 5452 5456 5460 5462 5467 5469 5471 5472 5473 5473 5474 5474 5473 5472 5470 5468 5465 5462 5459 5456 5453 5451 5451 5451 5451 5450 5447 5445 5443 5440 5437 5434 5431
5277 5288 5301 5311 5322 5332 5342 5353 5361 5368 5376 5387 5397 5404 5411 5417 5422 5427 5432 5436 5441 5445 5448 5452 5456 5461 5464 5465 5466 5467 5468 5468 5468 5467 5465 5463 5460 5458 5455 5453 5451 5449 5448 5448 5448 5447 5446 5444 5442 5440 5438 5435 5433 5430
5269 5281 5291 5300 5315 5327 5337 5344 5353 5362 5369 5381 5389 5394 5401 5408 5413 5420 5425 5430 5435 5438 5443 5446 5450 5454 5456 5458 5460 5461 5462 5462 5462 5460 5459 5456 5454 5451 5449 5447 5446 5445 5445 5445 5445 5444 5442 5440 5439 5437 5435 5433 5431 5429
5267 5275 5285 5295 5308 5319 5330 5340 5347 5355 5366 5375 5380 5386 5393 5401 5407 5412 5419 5421 5426 5431 5435 5439 5443 5447 5450 5452 5454 5455 5456 5456 5455 5454 5452 5450 5447 5445 5443 5442 5442 5441 5441 5441 5440 5439 5437 5436 5435 5433 5431 5430 5428 5426
5260 5269 5279 5290 5300 5313 5329 5333 5342 5354 5362 5369 5374 5379 5386 5393 5399 5405 5409 5415 5421 5425 5430 5434 5437 5441 5444 5446 5448 5449 5449 5450 5449 5447 5445 5443 5442 5440 5438 5438 5438 5438 5437 5437 5436 5435 5433 5432 5430 5429 5427 5425 5424 5422
5258 5267 5275 5283 5295 5311 5319 5330 5343 5352 5357 5363 5370 5375 5381 5388 5394 5397 5402 5410 5417 5420 5424 5428 5431 5434 5437 5440 5442 5442 5443 5444 5442 5441 5439 5437 5437 5436 5435 5435 5434 5434 5434 5432 5431 5430 5429 5428 5426 5425 5423 5422 5421 5419
5257 5262 5270 5281 5295 5307 5320 5331 5339 5346 5354 5361 5366 5370 5376 5382 5387 5391 5399 5407 5411 5415 5418 5422 5425 5428 5431 5434 5435 5436 5437 5437 5436 5435 5434 5433 5432 5432 5432 5432 5431 5430 5429 5428 5427 5425 5424 5422 5421 5420 5419 5418 5417 5416
5254 5263 5275 5286 5298 5311 5322 5331 5338 5344 5349 5355 5361 5368 5373 5377 5382 5388 5395 5400 5404 5407 5411 5415 5418 5422 5424 5427 5429 5430 5431 5431 5430 5430 5430 5429 5429 5429 5428 5427 5427 5426 5425 5423 5421 5420 5419 5418 5417 5417 5415 5414 5413 5412
5255 5267 5279 5290 5301 5314 5324 5331 5336 5343 5349 5354 5359 5365 5369 5374 5379 5386 5390 5392 5396 5400 5404 5408 5412 5415 5418 5420 5422 5424 5425 5425 5425 5425 5425 5425 5425 5425 5424 5423 5422 5422 5420 5419 5418 5417 5416 5415 5414 5413 5412 5411 5409 5408
5263 5272 5284 5296 5305 5315 5323 5329 5335 5339 5348 5353 5357 5360 5365 5371 5377 5380 5383 5386 5389 5393 5397 5400 5404 5408 5411 5413 5416 5418 5419 5419 5420 5420 5421 5421 5421 5420 5420 5419 5418 5417 5416 5414 5414 5413 5413 5412 5411 5409 5408 5407 5405 5403
5270 5279 5289 5298 5307 5315 5321 5329 5333 5340 5347 5350 5354 5357 5363 5368 5372 5374 5377 5380 5384 5388 5392 5395 5398 5401 5404 5407 5409 5411 5412 5414 5415 5415 5416 5416 5416 5415 5415 5414 5413 5412 5410 5410 5410 5409 5409 5408 5406 5405 5403 5402 5400 5398
5274 5283 5293 5300 5307 5314 5319 5325 5333 5338 5341 5346 5351 5356 5359 5362 5365 5369 5373 5376 5380 5383 5387 5390 5393 5395 5397 5400 5402 5405 5407 5408 5409 5410 5410 5410 5410 5409 5408 5407 5406 5405 5405 5405 5405 5404 5403 5402 5401 5399 5398 5396 5394 5391
5281 5290 5297 5304 5310 5317 5322 5327 5331 5335 5339 5343 5347 5350 5354 5358 5362 5366 5369 5372 5376 5380 5383 5385 5387 5390 5392 5395 5398 5400 5402 5403 5404 5404 5404 5404 5404 5403 5402 5401 5400 5401 5401 5400 5399 5398 5398 5397 5395 5394 5392 5390 5388 5385
5287 5294 5300 5307 5313 5318 5322 5326 5330 5334 5338 5341 5345 5349 5352 5356 5360 5363 5366 5369 5372 5375 5377 5380 5382 5385 5388 5391 5394 5395 5396 5397 5397 5398 5398 5398 5398 5398 5398 5397 5397 5396 5395 5395 5394 5393 5392 5391 5389 5388 5386 5383 5381 5378
5291 5297 5303 5308 5312 5318 5322 5326 5329 5332 5336 5339 5342 5345 5348 5352 5355 5358 5361 5364 5367 5369 5371 5374 5377 5380 5383 5386 5388 5389 5390 5391 5392 5393 5393 5393 5393 5393 5393 5393 5392 5391 5391 5390 5389 5388 5387 5385 5383 5382 5379 5377 5374 5371
Wind_Speed
47 47 48 48 47 45 45 43 43 41 41 40 40 39 38 35 34 33 33 32 32 31 31 32 32 33 33 35 37 35 32 32 33 34 34 34 37 37 36 36 35 35 37 39 41 45 46 45 46 51 52 51 49 50
49 49 51 50 48 47 46 43 40 39 39 39 38 38 37 35 34 33 32 31 31 30 30 30 31 32 34 32 30 30 30 31 31 31 32 32 33 32 32 33 31 35 36 36 38 47 44 43 47 49 50 53 49 52
46 47 49 50 50 48 47 46 44 41 40 39 38 37 37 35 34 34 33 30 29 28 28 27 31 29 27 30 29 24 28 31 29 31 31 32 32 30 29 29 32 34 30 35 44 40 37 37 36 37 40 46 48 50
41 42 42 44 47 48 46 44 43 41 40 39 38 37 35 34 34 33 32 30 27 25 25 27 26 27 27 26 26 29 30 28 29 29 29 29 28 28 27 31 34 25 28 36 39 34 36 34 35 36 39 45 46 47
37 38 38 39 41 41 39 41 41 39 38 36 36 35 34 34 32 30 27 28 26 25 23 23 24 24 24 23 24 26 25 26 26 25 26 26 25 27 28 30 22 22 32 35 32 31 31 23 27 33 36 38 41 45
39 37 36 36 36 38 39 39 36 36 37 37 37 35 34 33 29 25 25 27 27 24 21 21 22 20 18 19 22 24 24 22 21 23 24 24 21 27 31 23 19 27 27 29 22 26 28 30 30 33 38 43 47 51
38 38 37 36 36 37 37 37 38 37 37 36 34 33 33 30 27 26 25 24 24 23 20 18 20 20 19 20 21 21 21 20 21 23 23 24 25 28 26 20 18 23 20 23 28 28 29 33 35 43 48 50 56 57
39 37 37 37 36 37 36 38 38 37 36 35 33 33 33 32 26 23 23 23 24 24 22 18 18 17 18 18 19 19 20 21 21 23 23 23 22 22 20 15 14 16 21 24 28 31 35 40 46 51 54 57 55 52
41 39 39 38 38 39 38 37 36 37 36 34 34 34 31 28 19 21 22 21 22 24 23 20 17 20 19 18 19 21 21 22 24 22 20 22 18 15 15 13 16 21 23 28 31 36 39 43 45 52 56 51 53 42
42 42 41 41 40 39 38 37 36 36 35 34 34 32 30 21 20 20 20 22 22 24 26 20 18 16 19 18 18 19 19 21 23 21 22 19 9 14 16 16 19 22 24 32 37 39 41 45 47 56 50 50 45 36
44 43 41 40 39 38 37 35 34 33 33 33 33 31 27 25 23 22 23 23 23 26 26 19 18 14 18 17 16 18 18 21 23 20 20 12 8 16 19 18 22 27 33 39 42 43 44 46 49 54 52 35 29 27
45 43 42 41 39 36 35 34 33 32 32 32 30 29 28 26 26 25 25 27 27 26 22 13 15 16 18 18 17 18 20 21 21 18 17 14 13 17 20 23 27 32 37 38 42 42 43 44 52 50 36 27 26 28
49 47 46 44 42 40 38 37 35 34 34 33 32 32 30 30 30 30 28 28 24 19 15 16 18 20 21 19 21 22 23 22 21 21 18 12 18 20 23 28 32 36 35 35 38 38 40 47 45 38 23 20 20 20
53 50 49 48 46 44 43 41 40 39 39 38 36 35 35 35 35 31 27 25 23 22 21 21 21 22 21 18 21 23 22 21 22 20 15 18 21 23 26 30 34 33 33 35 33 36 40 38 29 14 11 12 18 22
56 55 54 51 50 48 46 45 44 43 42 41 40 39 38 36 34 31 29 26 25 23 21 22 22 22 20 18 22 20 19 19 18 17 20 23 24 26 29 32 30 30 30 31 34 35 34 27 22 15 11 13 16 17
57 56 55 55 54 51 50 49 47 46 44 43 42 41 37 35 32 29 28 28 27 24 23 24 24 24 21 19 18 19 19 16 16 19 20 22 25 28 28 28 28 31 34 34 32 27 23 19 14 15 16 16 16 14
61 58 55 54 56 55 53 52 50 49 47 45 42 40 37 33 30 29 28 28 29 26 24 17 23 24 26 22 17 14 14 18 19 20 22 22 23 26 28 32 33 32 30 27 22 19 15 13 12 14 14 15 14 13
63 60 57 55 55 55 55 54 53 52 48 45 43 39 37 34 32 30 31 27 27 24 26 25 21 21 20 18 15 17 19 19 19 20 20 22 25 29 33 33 31 29 28 24 19 14 14 16 16 17 15 14 13 10
59 60 59 57 55 53 52 53 54 52 49 48 43 40 38 35 32 28 30 27 28 27 29 22 28 24 20 19 18 15 16 19 19 20 21 24 29 32 32 29 28 26 16 13 15 13 11 14 16 17 16 14 12 12
57 59 59 58 57 55 52 50 50 51 50 47 43 41 40 37 36 34 29 29 27 26 27 29 29 26 21 16 16 19 21 21 20 22 24 28 31 30 26 24 23 17 12 14 14 12 12 14 16 16 14 14 14 14
53 55 55 58 58 56 54 51 50 49 48 44 43 44 43 41 40 37 33 30 31 26 27 30 33 30 24 24 21 26 25 22 23 25 27 30 29 25 22 20 18 13 12 14 14 13 14 17 18 16 14 14 14 13
47 50 51 55 57 56 54 52 51 48 42 39 43 44 43 42 40 38 36 35 41 33 31 29 30 29 27 25 25 26 24 23 24 26 29 28 24 21 18 15 15 13 13 15 16 16 16 16 16 15 15 14 13 12
42 45 48 50 55 58 53 53 50 40 36 35 39 41 41 40 38 36 37 36 38 38 34 33 30 32 30 27 26 25 23 23 24 27 26 22 19 16 14 13 14 15 16 16 16 16 16 16 15 15 15 15 14 11
42 43 45 49 55 54 52 49 39 35 33 33 34 36 37 35 35 37 37 33 35 35 33 32 31 32 32 30 27 23 23 23 25 24 21 18 14 11 11 11 12 13 13 13 14 14 15 15 15 16 14 11 12 13
42 45 47 48 49 49 44 38 35 34 30 28 29 30 31 33 37 37 34 36 36 35 33 30 29 29 29 27 24 24 23 23 24 20 18 15 13 12 11 12 12 12 12 14 17 18 18 17 13 11 13 13 14 13
43 43 42 43 43 41 41 38 33 30 29 26 28 25 27 32 34 32 30 31 35 37 36 33 30 28 27 25 26 25 22 23 20 16 15 15 14 12 12 11 13 14 16 18 17 13 11 11 13 14 15 15 14 15
42 40 41 43 42 42 41 32 32 26 20 19 21 24 26 30 29 26 27 28 31 34 37 36 34 31 30 28 27 24 22 20 16 14 15 16 15 14 13 13 15 16 17 16 13 12 13 15 15 16 16 16 16 18
40 44 46 49 49 41 36 32 29 27 30 25 22 26 28 25 23 25 26 28 27 28 31 34 34 32 31 29 25 21 18 18 17 16 15 16 18 18 18 18 17 17 17 14 14 15 17 17 17 17 18 18 19 21
43 46 53 51 40 38 37 30 22 20 23 28 28 27 25 23 23 25 26 25 24 23 24 24 24 24 23 21 20 20 19 18 17 16 18 19 20 20 20 19 19 19 17 15 15 17 18 17 17 18 18 19 21 23
42 55 43 39 38 37 29 25 25 25 25 25 26 25 24 24 24 24 24 23 22 22 21 20 20 21 22 22 22 21 20 18 18 17 17 18 19 20 21 23 21 16 14 15 17 17 17 18 19 19 20 21 23 26
42 42 35 33 32 28 25 23 23 24 25 26 28 28 27 26 25 24 24 23 21 19 19 20 20 21 21 21 21 19 17 16 15 16 17 18 19 20 17 13 11 12 14 16 17 18 18 19 20 20 22 24 26 28
25 34 34 33 30 28 24 20 20 22 24 25 25 25 24 23 23 23 22 21 19 20 21 22 22 22 22 20 19 18 18 17 17 17 17 18 17 14 13 13 14 15 16 16 17 18 19 20 21 22 24 26 28 31
37 34 33 31 27 25 21 17 16 19 21 22 22 22 22 22 22 21 22 21 21 22 22 23 23 22 21 20 20 19 19 18 17 16 16 15 14 14 14 15 15 15 15 16 17 19 20 21 22 23 26 28 31 32
Wind_Direction
215 213 214 213 213 212 213 215 218 221 226 226 223 224 224 223 224 226 228 229 232 235 238 243 246 249 251 253 255 260 261 260 261 263 265 266 268 270 272 275 279 282 283 283 284 286 289 287 285 284 287 288 291 288
219 219 218 215 212 213 215 216 220 223 225 224 222 223 223 225 226 227 228 230 234 238 242 243 247 249 251 259 264 264 266 268 266 267 269 271 271 272 275 278 282 282 283 287 293 287 293 299 293 292 295 296 298 293
216 218 217 218 216 217 219 220 222 222 223 221 221 220 221 223 225 226 229 232 235 238 242 242 245 248 251 254 261 267 263 264 270 271 272 274 277 280 284 285 285 284 300 296 287 293 305 302 308 303 295 293 295 294
213 215 215 215 214 215 218 218 218 218 221 220 221 221 221 223 225 229 230 233 236 237 240 244 247 250 252 253 253 255 260 263 266 270 272 277 282 284 285 284 287 310 298 288 300 315 306 308 300 295 296 296 295 294
209 210 211 208 208 209 206 209 211 214 218 220 221 221 222 224 225 227 231 233 234 235 236 242 247 246 248 248 251 256 258 261 264 269 275 279 285 286 284 288 309 297 290 301 315 309 309 322 306 304 304 303 300 297
208 205 203 204 205 207 206 210 210 210 215 218 221 221 222 223 224 223 224 228 232 233 234 236 241 243 247 247 248 249 252 256 263 270 275 282 296 291 288 302 300 296 302 304 316 317 317 314 308 303 303 303 302 299
205 205 203 202 203 206 206 207 209 210 212 212 214 219 222 223 223 224 224 225 228 234 232 229 235 242 243 248 251 256 261 266 269 274 285 293 292 283 292 311 283 301 307 312 316 317 316 313 316 314 315 313 311 306
203 201 200 199 201 204 203 201 203 206 208 210 210 213 216 219 218 221 223 226 229 232 235 224 227 236 247 251 253 257 262 267 270 276 283 280 274 282 299 263 286 299 303 312 316 311 311 311 313 315 316 316 312 311
200 200 200 199 201 202 201 199 200 201 203 203 207 210 212 219 212 219 223 225 235 236 235 230 216 219 224 237 246 256 263 270 274 280 276 272 283 287 267 276 293 299 309 314 314 313 315 316 316 316 318 316 315 311
200 198 197 197 197 199 198 197 196 197 198 199 206 209 212 205 201 212 215 221 225 240 245 247 239 212 219 228 234 244 257 267 271 270 268 278 264 261 270 286 296 308 316 317 320 315 311 311 314 317 320 315 314 309
202 201 199 199 199 199 199 199 198 197 198 202 206 208 209 211 208 210 218 226 230 235 241 245 254 237 228 235 245 251 265 268 265 262 272 245 240 260 282 296 299 306 311 311 314 315 311 315 317 321 322 319 316 313
205 204 203 203 204 204 204 204 205 204 204 207 209 212 213 215 217 217 222 226 232 236 243 245 239 231 230 242 249 257 268 266 257 264 251 241 262 269 279 293 301 307 316 314 314 316 318 318 320 320 319 319 329 329
208 206 206 205 206 207 209 209 210 211 211 212 212 215 217 219 221 223 224 229 237 248 251 228 224 230 238 252 259 257 265 267 264 261 249 259 269 280 291 305 310 316 314 316 313 316 318 322 328 330 330 341 349 357
210 209 208 209 208 209 210 211 213 214 215 216 217 219 220 222 224 227 232 233 232 242 237 229 229 234 243 263 254 254 265 270 274 263 280 280 285 292 300 305 308 311 312 310 313 320 321 326 331 330 357 17 26 30
212 210 209 211 211 210 211 211 213 215 216 217 218 221 223 227 230 233 235 237 238 237 233 227 233 241 248 249 247 256 272 284 292 292 284 286 295 302 305 305 306 307 306 306 310 313 318 317 317 319 346 3 9 22
212 211 210 211 212 211 211 212 213 215 216 218 219 223 224 227 230 232 234 234 234 238 229 228 235 239 239 248 257 259 272 291 290 286 287 293 297 299 301 302 303 304 304 305 305 310 314 305 319 343 1 6 3 8
212 211 210 211 213 213 213 213 214 215 216 219 219 220 221 223 228 227 229 230 230 229 227 229 244 243 246 252 258 258 274 277 285 286 286 291 296 298 299 302 303 303 303 300 301 306 307 313 317 321 339 354 357 357
212 212 210 211 212 214 214 214 215 216 219 221 219 219 222 221 224 227 226 229 228 228 225 221 236 242 245 247 253 264 269 274 276 283 288 292 296 300 303 306 303 303 298 294 291 294 295 308 310 319 337 344 350 352
212 212 211 211 212 213 214 215 216 218 220 221 219 219 219 220 221 226 224 228 225 226 221 223 244 248 254 253 255 262 269 273 280 285 291 298 302 304 306 303 302 305 294 284 288 286 297 309 314 325 333 346 350 356
210 210 210 211 211 211 212 213 215 217 218 218 218 219 220 220 223 225 227 226 226 215 220 226 226 239 241 252 256 271 282 281 281 289 295 301 303 303 300 297 302 297 276 282 289 290 298 306 311 321 334 343 348 349
207 208 208 210 209 209 210 211 214 215 219 216 216 217 219 219 223 226 227 222 205 216 229 231 224 227 249 245 256 271 273 273 284 289 296 298 300 298 292 293 288 289 285 282 284 286 292 299 305 316 327 334 336 337
204 205 207 207 207 208 207 210 214 215 217 214 215 217 219 221 224 225 219 215 208 211 215 220 223 236 238 242 249 259 265 278 283 290 293 297 294 293 291 284 274 271 271 274 280 286 293 299 303 312 320 324 325 322
197 200 201 202 203 203 202 208 214 211 213 212 215 218 218 218 219 216 215 214 214 217 224 228 234 234 235 241 251 257 267 275 286 290 294 290 288 292 292 283 274 265 262 265 275 285 295 303 309 312 313 312 309 307
192 195 196 198 198 197 200 204 203 206 207 207 212 217 217 215 212 210 212 208 206 216 223 224 230 236 237 242 248 258 269 278 286 291 287 281 282 286 285 278 269 267 272 282 291 297 300 301 303 303 302 303 304 302
188 190 192 192 190 191 192 189 191 194 193 201 205 215 213 211 209 209 207 203 207 214 221 224 229 233 235 239 249 260 266 280 285 284 276 273 277 279 279 282 284 288 295 299 299 298 296 299 300 303 305 305 303 299
188 187 184 179 178 177 180 180 179 179 184 190 202 208 207 206 208 210 209 215 220 221 225 229 233 237 239 242 250 258 269 277 277 272 266 265 268 274 286 293 297 297 302 306 303 299 297 301 304 305 305 304 301 300
182 173 168 165 163 164 159 164 164 167 189 200 202 200 205 206 207 207 211 218 220 222 225 228 232 236 239 244 252 261 267 264 260 257 258 261 263 270 278 286 293 296 304 299 292 292 299 300 299 300 300 299 297 298
164 160 157 156 149 154 162 167 171 181 206 218 214 207 204 203 205 209 212 216 219 223 226 230 233 237 240 247 251 251 247 247 252 260 261 259 262 268 278 285 287 292 296 284 281 288 295 294 293 295 297 294 293 297
157 157 155 154 154 161 159 163 171 202 208 218 212 205 203 206 209 212 213 216 216 220 224 228 231 234 237 235 230 229 232 238 245 251 255 260 267 273 276 284 288 292 287 278 280 289 292 291 291 296 294 294 295 299
160 152 150 154 155 162 159 162 186 195 199 195 196 200 203 205 209 212 214 217 218 220 223 224 226 225 222 220 223 226 232 239 248 256 263 268 269 276 286 289 283 276 273 277 286 289 291 291 295 296 294 296 299 301
155 161 156 152 158 164 167 176 183 188 189 191 195 198 201 204 208 211 215 219 219 219 220 221 221 222 221 224 229 234 240 249 258 263 268 273 280 286 287 280 272 274 281 286 289 290 291 293 295 294 293 296 300 303
166 168 158 159 166 173 178 188 196 200 199 199 201 208 212 215 216 219 222 223 221 220 221 222 224 226 228 230 232 236 242 250 259 270 274 280 275 270 272 278 282 284 286 288 290 290 292 292 292 292 295 298 302 304
173 162 168 176 185 191 196 197 199 203 207 211 214 216 218 219 221 222 224 223 221 222 224 225 227 229 230 232 239 246 248 253 259 268 269 262 263 270 277 279 281 284 286 288 289 290 291 293 294 297 300 301 304 305